FLOCK 2K-45 (42856 NORAD) Tracking and Keplerian Element Data

This shows tracking and keplerian element data for the satellite.

Feedback or suggestion? Click here.




ElementValue
Catalog42856
NameFLOCK 2K-45
Epoch Orbit25568
Epoch Day31.47805506
Epoch Year2022
RAAN237.5803
Inclination96.8242
Eccentricity0.0006918
Argument of Perigee335.2151
Mean Anonmoly24.877
Mean Motion15.52059415
Decay Rate0.00059792
L11 42856U 17042AH 22031.47805506 .00059792 00000+0 98656-3 0 9990
L22 42856 96.8242 237.5803 0006918 335.2151 24.8770 15.52059415255681



Live tracking and technical data element details for FLOCK 2K-45 (NORAD 42856). FLOCK 2K-45 can be tracked NOW for your location showing map with azimuth and elevation plus other details from your city location.







IsCatalogInMostPopularTable: catalog: 42856, numindb: 558
Update: records affected: 1



GetName: 42856 FLOCK 2K-45

Hit Count: updated at: Thu, 15 May 2025 20:19:01 GMT